Flag for Finland Weather past 2 weeks in Ivalo, Finland

Now
45 °F

Light rain. Overcast.


Feels Like: 42 °F
Forecast: 40 / 51 °F
Wind: 5 mph from Southeast

Location: Ivalo

Current Time: May 7, 2015 at 4:49:35 AM

Latest Report: May 7, 2015 at 3:50 AM


Visibility: N/A

Pressure: 29.71 "Hg

Humidity: 66%

Dew point: 34 °F

Location of IvaloLocation

Historic Weather in Ivalo — Graph

°F

Ivalo temperature yesterday

Maximum temperature yesterday: 50 °F (at 12:50 PM)
Minimum temperature yesterday: 41 °F (at 2:20 AM)
Average temperature yesterday: 46 °F

Past Weeks' High & Low Weather Summary

 TemperatureHumidityPressure
High50 °F (May 6, 12:50 PM)100% (Apr 22, 4:20 AM)30.07 "Hg (Apr 22, 4:20 AM)
Low14 °F (Apr 29, 2:50 AM)26% (Apr 30, 3:50 PM)29.15 "Hg (Apr 23, 8:50 AM)
Average34 °F68%29.74 "Hg
* Reported Apr 22 3:20 AM — May 7 3:50 AM, Ivalo, Weather by CustomWeather, © 2015

Note: Actual official high and low records may vary slightly from our data, if they occured in-between our weather recording intervals... More about our weather records

Advertising

Ivalo weather history for previous 24 hours

 ConditionsComfort  
Time TempWeatherWind HumidityBarometerVisibility
3:50 AM
Thu, May 7
45 °FLight rain. Overcast.5 mph66%29.71 "HgN/A
3:20 AM45 °FClear.No wind61%29.71 "Hg10 mi
2:50 AM45 °FClear.3 mph61%29.71 "Hg10 mi
2:20 AM45 °FLight rain. Overcast.6 mph61%29.74 "HgN/A
1:50 AM46 °FLight rain. Overcast.5 mph57%29.74 "HgN/A
1:20 AM45 °FPassing clouds.5 mph61%29.74 "HgN/A
12:50 AM46 °FOvercast.7 mph53%29.74 "HgN/A
11:50 PM
Wed, May 6
46 °FPassing clouds.6 mph50%29.77 "HgN/A
11:20 PM46 °FSunny.2 mph50%29.77 "Hg10 mi
10:50 PM46 °FSunny.2 mph50%29.77 "Hg10 mi
10:20 PM46 °FPassing clouds.5 mph50%29.77 "HgN/A
9:50 PM46 °FPassing clouds.5 mph46%29.80 "HgN/A
9:20 PM46 °FPassing clouds.7 mph46%29.80 "HgN/A
8:50 PM46 °FPassing clouds.6 mph46%29.80 "HgN/A
8:20 PM48 °FPassing clouds.6 mph40%29.80 "HgN/A
7:50 PM48 °FOvercast.5 mph40%29.80 "HgN/A
7:20 PM48 °FPassing clouds.8 mph40%29.80 "HgN/A
6:50 PM48 °FPassing clouds.10 mph40%29.80 "HgN/A
6:20 PM48 °FPassing clouds.9 mph40%29.80 "HgN/A
5:50 PM50 °FPassing clouds.13 mph37%29.83 "HgN/A
5:20 PM50 °FPassing clouds.15 mph35%29.80 "HgN/A
4:50 PM50 °FPassing clouds.12 mph37%29.83 "HgN/A
4:20 PM50 °FPassing clouds.14 mph37%29.83 "HgN/A
3:50 PM50 °FPassing clouds.16 mph35%29.83 "HgN/A
3:20 PM50 °FPassing clouds.13 mph37%29.86 "HgN/A
2:50 PM50 °FPassing clouds.15 mph37%29.86 "HgN/A
2:20 PM50 °FPassing clouds.15 mph35%29.86 "HgN/A
1:50 PM48 °FPassing clouds.13 mph40%29.86 "HgN/A
1:20 PM50 °FPassing clouds.16 mph40%29.89 "HgN/A
12:50 PM50 °FPassing clouds.16 mph40%29.89 "HgN/A
12:20 PM48 °FPassing clouds.12 mph43%29.89 "HgN/A
11:50 AM46 °FPassing clouds.14 mph46%29.89 "HgN/A
11:20 AM46 °FPassing clouds.14 mph46%29.89 "HgN/A
10:50 AM48 °FPassing clouds.13 mph46%29.89 "HgN/A
10:20 AM46 °FPassing clouds.10 mph50%29.89 "HgN/A
9:50 AM46 °FPassing clouds.10 mph53%29.92 "HgN/A
9:20 AM46 °FPassing clouds.10 mph50%29.92 "HgN/A
8:50 AM45 °FPassing clouds.9 mph53%29.92 "HgN/A
8:20 AM45 °FPassing clouds.7 mph53%29.92 "HgN/A
7:50 AM45 °FPassing clouds.5 mph53%29.92 "HgN/A
7:20 AM45 °FPassing clouds.5 mph53%29.92 "HgN/A
6:50 AM43 °FPassing clouds.7 mph57%29.92 "HgN/A
5:50 AM43 °FPassing clouds.6 mph57%29.92 "HgN/A
5:20 AM43 °FPassing clouds.9 mph57%29.95 "HgN/A
4:50 AM43 °FSunny.3 mph57%29.95 "Hg10 mi
4:20 AM43 °FClear.2 mph61%29.95 "Hg10 mi
Weather by CustomWeather, © 2015

See weather overviewHow to use our weather pages